Noatak, AK

8:33 AM AKST on December 10, 2016 (GMT -0900)
Noatak

Weather History for PAWN - October, 2012

Change the Weather History Date:

Sunday, October 28, 2012

  Actual Average Record
Temperature  
Mean Temperature 20 °F -  
Max Temperature 28 °F 19 °F 37 °F (1996)
Min Temperature 12 °F 9 °F -23 °F (2007)
Degree Days  
Heating Degree Days 45    
Moisture  
Dew Point 18 °F    
Average Humidity 87    
Maximum Humidity 93    
Minimum Humidity 74    
Precipitation  
Precipitation 0.00 in - - ()
Sea Level Pressure  
Sea Level Pressure 30.29 in    
Wind  
Wind Speed 2 mph (NW)    
Max Wind Speed 14 mph    
Max Gust Speed 20 mph    
Visibility 9 miles    
Events      
Averages and records for this station are not official NWS values.
T = Trace of Precipitation, MM = Missing Value Source: NWS Daily Summary

Daily Weather History Graph

Daily Weather History Graph

Search for Another Location

Airport or City:

Trip Planner

Search our weather history database for the weather conditions in past years. The results will help you decide how hot, cold, wet, or windy it might be!

Date:

Astronomy

Oct. 28, 2012 Rise Set
Actual Time 10:46 AM AKDT 6:23 PM AKDT
Civil Twilight 9:44 AM AKDT 7:25 PM AKDT
Nautical Twilight 8:39 AM AKDT 8:30 PM AKDT
Astronomical Twilight 7:36 AM AKDT 9:32 PM AKDT
Moon 5:45 PM AKDT (10/28) 9:45 AM AKDT (10/28)
Length of Visible Light 9h 40m
Length of Day
7h 37m
Waxing Gibbous, 99% of the Moon is Illuminated
Oct 28
Waxing Gibbous
Oct 29
Full
Nov 6
Last Quarter
Nov 13
New
Nov 20
First Quarter

Hourly Weather History & Observations

Time (AKDT) Temp. Windchill Dew Point Humidity Pressure Visibility Wind Dir Wind Speed Gust Speed Precip Events Conditions
12:16 AM 15.8 °F - 12.2 °F 86% 30.33 in 10.0 mi Calm Calm - N/A   Clear
12:36 AM 15.8 °F - 10.4 °F 79% 30.33 in 10.0 mi Calm Calm - N/A   Clear
12:56 AM 15.8 °F - 10.4 °F 79% 30.33 in 10.0 mi Calm Calm - N/A   Clear
1:16 AM 15.8 °F - 10.4 °F 79% 30.33 in 10.0 mi Calm Calm - N/A   Clear
1:36 AM 15.8 °F 10.2 °F 12.2 °F 86% 30.33 in 10.0 mi NNW 3.5 mph - N/A   Clear
1:56 AM 14.0 °F 6.5 °F 10.4 °F 86% 30.33 in 10.0 mi NNW 4.6 mph - N/A   Clear
2:16 AM 12.2 °F - 8.6 °F 85% 30.34 in 10.0 mi Calm Calm - N/A   Clear
2:36 AM 14.0 °F - 10.4 °F 86% 30.34 in 10.0 mi Calm Calm - N/A   Clear
2:56 AM 12.2 °F 4.3 °F 8.6 °F 85% 30.34 in 10.0 mi North 4.6 mph - N/A   Clear
3:16 AM 12.2 °F 4.3 °F 8.6 °F 85% 30.34 in 10.0 mi North 4.6 mph - N/A   Clear
3:36 AM 12.2 °F 6.1 °F 8.6 °F 85% 30.34 in 10.0 mi North 3.5 mph - N/A   Clear
3:56 AM 12.2 °F 6.1 °F 8.6 °F 85% 30.34 in 10.0 mi NNW 3.5 mph - N/A   Clear
4:16 AM 12.2 °F -0.2 °F 10.4 °F 92% 30.34 in 10.0 mi NW 9.2 mph - N/A   Clear
4:36 AM 14.0 °F 2.9 °F 10.4 °F 86% 30.34 in 10.0 mi North 8.1 mph - N/A   Clear
4:56 AM 15.8 °F - 12.2 °F 86% 30.34 in 10.0 mi Calm Calm - N/A   Clear
5:16 AM 17.6 °F 9.3 °F 14.0 °F 86% 30.34 in 10.0 mi NW 5.8 mph - N/A   Clear
5:36 AM 15.8 °F - 10.4 °F 79% 30.34 in 10.0 mi Calm Calm - N/A   Clear
5:56 AM 15.8 °F - 12.2 °F 86% 30.34 in 10.0 mi Calm Calm - N/A   Clear
6:16 AM 15.8 °F - 12.2 °F 86% 30.34 in 10.0 mi Calm Calm - N/A   Mostly Cloudy
6:36 AM 17.6 °F - 15.8 °F 93% 30.33 in 10.0 mi Calm Calm - N/A   Overcast
6:56 AM 12.2 °F - 10.4 °F 92% 30.33 in 10.0 mi Calm Calm - N/A   Overcast
7:16 AM 15.8 °F 10.2 °F 12.2 °F 86% 30.33 in 10.0 mi West 3.5 mph - N/A   Overcast
7:36 AM 15.8 °F - 10.4 °F 79% 30.33 in 10.0 mi Calm Calm - N/A   Overcast
7:56 AM 17.6 °F - 14.0 °F 86% 30.33 in 10.0 mi Calm Calm - N/A   Overcast
8:16 AM 17.6 °F - 15.8 °F 93% 30.33 in 10.0 mi Calm Calm - N/A   Overcast
8:36 AM 17.6 °F - 14.0 °F 86% 30.32 in 10.0 mi Calm Calm - N/A   Overcast
8:56 AM 17.6 °F - 15.8 °F 93% 30.32 in 10.0 mi Calm Calm - N/A   Overcast
9:16 AM 19.4 °F - 15.8 °F 86% 30.32 in 10.0 mi Calm Calm - N/A   Overcast
9:36 AM 19.4 °F - 17.6 °F 93% 30.31 in 10.0 mi Calm Calm - N/A   Overcast
9:56 AM 19.4 °F - 15.8 °F 86% 30.32 in 10.0 mi Calm Calm - N/A   Overcast
10:16 AM 19.4 °F - 17.6 °F 93% 30.32 in 10.0 mi Calm Calm - N/A   Overcast
10:36 AM 19.4 °F 14.3 °F 17.6 °F 93% 30.32 in 10.0 mi SSE 3.5 mph - N/A   Overcast
10:56 AM 19.4 °F 14.3 °F 15.8 °F 86% 30.32 in 10.0 mi SSE 3.5 mph - N/A   Overcast
11:16 AM 19.4 °F - 17.6 °F 93% 30.32 in 10.0 mi Calm Calm - N/A   Overcast
11:36 AM 19.4 °F - 17.6 °F 93% 30.32 in 10.0 mi Calm Calm - N/A   Overcast
11:56 AM 21.2 °F - 17.6 °F 86% 30.31 in 10.0 mi Calm Calm - N/A   Overcast
12:16 PM 19.4 °F 14.3 °F 17.6 °F 93% 30.31 in 10.0 mi ESE 3.5 mph - N/A   Overcast
12:36 PM 21.2 °F - 17.6 °F 86% 30.31 in 10.0 mi Calm Calm - N/A   Overcast
12:56 PM 21.2 °F - 19.4 °F 93% 30.31 in 10.0 mi Calm Calm - N/A   Overcast
1:16 PM 21.2 °F - 19.4 °F 93% 30.30 in 10.0 mi Calm Calm - N/A   Overcast
1:36 PM 23.0 °F - 21.2 °F 93% 30.30 in 10.0 mi Calm Calm - N/A   Overcast
1:56 PM 24.8 °F - 21.2 °F 86% 30.30 in 10.0 mi Calm Calm - N/A   Overcast
2:16 PM 24.8 °F - 21.2 °F 86% 30.30 in 10.0 mi Calm Calm - N/A   Overcast
2:36 PM 26.6 °F - 21.2 °F 80% 30.29 in 10.0 mi Calm Calm - N/A   Overcast
2:56 PM 26.6 °F - 23.0 °F 86% 30.29 in 10.0 mi Calm Calm - N/A   Overcast
3:16 PM 26.6 °F - 24.8 °F 93% 30.29 in 10.0 mi Calm Calm - N/A   Overcast
3:36 PM 26.6 °F 21.2 °F 23.0 °F 86% 30.27 in 10.0 mi ESE 4.6 mph - N/A   Mostly Cloudy
3:56 PM 26.6 °F - 23.0 °F 86% 30.27 in 10.0 mi Calm Calm - N/A   Mostly Cloudy
4:16 PM 26.6 °F - 23.0 °F 86% 30.27 in 10.0 mi Calm Calm - N/A   Overcast
4:36 PM 26.6 °F - 23.0 °F 86% 30.26 in 10.0 mi Calm Calm - N/A   Overcast
4:56 PM 26.6 °F - 24.8 °F 93% 30.26 in 10.0 mi Calm Calm - N/A   Overcast
5:16 PM 26.6 °F - 24.8 °F 93% 30.25 in 10.0 mi Calm Calm - N/A   Overcast
5:36 PM 26.6 °F - 24.8 °F 93% 30.24 in 10.0 mi Calm Calm - N/A   Overcast
5:56 PM 26.6 °F - 24.8 °F 93% 30.24 in 10.0 mi Calm Calm - N/A   Mostly Cloudy
6:16 PM 26.6 °F - 24.8 °F 93% 30.23 in 10.0 mi Calm Calm - N/A   Mostly Cloudy
6:36 PM 26.6 °F - 24.8 °F 93% 30.23 in 10.0 mi Calm Calm - N/A   Overcast
6:56 PM 26.6 °F 22.6 °F 24.8 °F 93% 30.23 in 8.0 mi West 3.5 mph - N/A   Overcast
7:16 PM 26.6 °F 22.6 °F 24.8 °F 93% 30.22 in 1.8 mi WNW 3.5 mph - N/A   Overcast
7:36 PM 26.6 °F - 24.8 °F 93% 30.22 in 2.0 mi Calm Calm - N/A   Overcast
7:56 PM 26.6 °F - 24.8 °F 93% 30.21 in 2.0 mi Calm Calm - N/A   Overcast
8:16 PM 26.6 °F - 24.8 °F 93% 30.20 in 4.0 mi Calm Calm - N/A   Overcast
8:36 PM 26.6 °F - 24.8 °F 93% 30.20 in 2.5 mi Calm Calm - N/A   Overcast
8:56 PM 26.6 °F - 24.8 °F 93% 30.20 in 4.0 mi Calm Calm - N/A   Overcast
9:16 PM 26.6 °F 19.1 °F 24.8 °F 93% 30.21 in 3.0 mi WNW 6.9 mph - N/A   Overcast
9:36 PM 28.4 °F 17.5 °F 24.8 °F 86% 30.20 in 3.0 mi NW 13.8 mph 19.6 mph N/A   Mostly Cloudy
9:56 PM 26.6 °F 15.2 °F 23.0 °F 86% 30.20 in 10.0 mi NW 13.8 mph 19.6 mph N/A   Mostly Cloudy
10:16 PM 26.6 °F 15.7 °F 21.2 °F 80% 30.21 in 10.0 mi NW 12.7 mph - N/A   Scattered Clouds
10:36 PM 26.6 °F 15.7 °F 21.2 °F 80% 30.21 in 10.0 mi NW 12.7 mph - N/A   Mostly Cloudy
10:56 PM 26.6 °F 16.2 °F 21.2 °F 80% 30.21 in 10.0 mi WNW 11.5 mph - N/A   Overcast
11:16 PM 24.8 °F 13.4 °F 19.4 °F 80% 30.21 in 10.0 mi WNW 12.7 mph - N/A   Overcast
11:36 PM 26.6 °F 16.2 °F 19.4 °F 74% 30.21 in 10.0 mi WNW 11.5 mph - N/A   Overcast
11:56 PM 24.8 °F 14.0 °F 17.6 °F 74% 30.22 in 10.0 mi WNW 11.5 mph - N/A   Scattered Clouds